"","month","year","views","date","period","time"
"1",12,2007,0,2007-12-01,"pre",1
"2",1,2008,0,2008-01-01,"pre",2
"3",2,2008,0,2008-02-01,"pre",3
"4",3,2008,0,2008-03-01,"pre",4
"5",4,2008,0,2008-04-01,"pre",5
"6",5,2008,0,2008-05-01,"pre",6
"7",6,2008,0,2008-06-01,"pre",7
"8",7,2008,0,2008-07-01,"pre",8
"9",8,2008,0,2008-08-01,"pre",9
"10",9,2008,0,2008-09-01,"pre",10
"11",10,2008,0,2008-10-01,"pre",11
"12",11,2008,0,2008-11-01,"pre",12
"13",12,2008,0,2008-12-01,"pre",13
"14",1,2009,0,2009-01-01,"pre",14
"15",2,2009,0,2009-02-01,"pre",15
"16",3,2009,0,2009-03-01,"pre",16
"17",4,2009,0,2009-04-01,"pre",17
"18",5,2009,1,2009-05-01,"pre",18
"19",6,2009,0,2009-06-01,"pre",19
"20",7,2009,0,2009-07-01,"pre",20
"21",8,2009,0,2009-08-01,"pre",21
"22",9,2009,1,2009-09-01,"pre",22
"23",10,2009,0,2009-10-01,"pre",23
"24",11,2009,1,2009-11-01,"pre",24
"25",12,2009,0,2009-12-01,"pre",25
"26",1,2010,0,2010-01-01,"pre",26
"27",2,2010,1,2010-02-01,"pre",27
"28",3,2010,1,2010-03-01,"pre",28
"29",4,2010,0,2010-04-01,"pre",29
"30",5,2010,1,2010-05-01,"pre",30
"31",6,2010,0,2010-06-01,"pre",31
"32",7,2010,1,2010-07-01,"pre",32
"33",8,2010,0,2010-08-01,"pre",33
"34",9,2010,1,2010-09-01,"pre",34
"35",10,2010,0,2010-10-01,"pre",35
"36",11,2010,0,2010-11-01,"pre",36
"37",12,2010,0,2010-12-01,"pre",37
"38",1,2011,0,2011-01-01,"pre",38
"39",2,2011,1,2011-02-01,"pre",39
"40",3,2011,0,2011-03-01,"pre",40
"41",4,2011,0,2011-04-01,"pre",41
"42",5,2011,0,2011-05-01,"pre",42
"43",6,2011,0,2011-06-01,"pre",43
"44",7,2011,0,2011-07-01,"pre",44
"45",8,2011,3,2011-08-01,"pre",45
"46",9,2011,9,2011-09-01,"pre",46
"47",10,2011,14,2011-10-01,"pre",47
"48",11,2011,3,2011-11-01,"pre",48
"49",12,2011,0,2011-12-01,"pre",49
"50",1,2012,5,2012-01-01,"pre",50
"51",2,2012,0,2012-02-01,"pre",51
"52",3,2012,1,2012-03-01,"pre",52
"53",4,2012,4,2012-04-01,"pre",53
"54",5,2012,5,2012-05-01,"pre",54
"55",6,2012,6,2012-06-01,"pre",55
"56",7,2012,5,2012-07-01,"pre",56
"57",8,2012,3,2012-08-01,"pre",57
"58",9,2012,69,2012-09-01,"pre",58
"59",10,2012,406,2012-10-01,"pre",59
"60",11,2012,501,2012-11-01,"pre",60
"61",12,2012,352,2012-12-01,"pre",61
"62",1,2013,574,2013-01-01,"pre",62
"63",2,2013,814,2013-02-01,"pre",63
"64",3,2013,1228,2013-03-01,"pre",64
"65",4,2013,1204,2013-04-01,"pre",65
"66",5,2013,1026,2013-05-01,"pre",66
"67",6,2013,1014,2013-06-01,"pre",67
"68",7,2013,890,2013-07-01,"pre",68
"69",8,2013,690,2013-08-01,"pre",69
"70",9,2013,1041,2013-09-01,"pre",70
"71",10,2013,917,2013-10-01,"pre",71
"72",11,2013,875,2013-11-01,"pre",72
"73",12,2013,629,2013-12-01,"pre",73
"74",1,2014,1324,2014-01-01,"pre",74
"75",2,2014,1213,2014-02-01,"pre",75
"76",3,2014,1208,2014-03-01,"pre",76
"77",4,2014,1135,2014-04-01,"pre",77
"78",5,2014,1460,2014-05-01,"pre",78
"79",6,2014,1327,2014-06-01,"pre",79
"80",7,2014,305,2014-07-01,"pre",80
"81",8,2014,257,2014-08-01,"pre",81
"82",9,2014,1109,2014-09-01,"pre",82
"83",10,2014,1653,2014-10-01,"pre",83
"84",11,2014,1647,2014-11-01,"pre",84
"85",12,2014,553,2014-12-01,"pre",85
"86",1,2015,1309,2015-01-01,"pre",86
"87",2,2015,1518,2015-02-01,"pre",87
"88",3,2015,1788,2015-03-01,"pre",88
"89",4,2015,1647,2015-04-01,"pre",89
"90",5,2015,1542,2015-05-01,"pre",90
"91",6,2015,1432,2015-06-01,"pre",91
"92",7,2015,1315,2015-07-01,"pre",92
"93",8,2015,1207,2015-08-01,"pre",93
"94",9,2015,1286,2015-09-01,"pre",94
"95",10,2015,1490,2015-10-01,"pre",95
"96",11,2015,1255,2015-11-01,"pre",96
"97",12,2015,786,2015-12-01,"pre",97
"98",1,2016,3120,2016-01-01,"post",98
"99",2,2016,2951,2016-02-01,"post",99
"100",3,2016,2783,2016-03-01,"post",100
"101",4,2016,2819,2016-04-01,"post",101
"102",5,2016,3215,2016-05-01,"post",102
"103",6,2016,3127,2016-06-01,"post",103
"104",7,2016,2559,2016-07-01,"post",104
"105",8,2016,2242,2016-08-01,"post",105
"106",9,2016,2728,2016-09-01,"post",106
"107",10,2016,2249,2016-10-01,"post",107
"108",11,2016,2717,2016-11-01,"post",108
"109",12,2016,2057,2016-12-01,"post",109
"110",1,2017,2693,2017-01-01,"post",110
"111",2,2017,2912,2017-02-01,"post",111
"112",3,2017,2821,2017-03-01,"post",112
"113",4,2017,2650,2017-04-01,"post",113
"114",5,2017,3372,2017-05-01,"post",114
"115",6,2017,2475,2017-06-01,"post",115
"116",7,2017,2700,2017-07-01,"post",116
"117",8,2017,2257,2017-08-01,"post",117
"118",9,2017,2674,2017-09-01,"post",118
"119",10,2017,2645,2017-10-01,"post",119
"120",11,2017,2204,2017-11-01,"post",120
"121",12,2017,1958,2017-12-01,"post",121
"122",1,2018,2326,2018-01-01,"post",122
"123",2,2018,2196,2018-02-01,"post",123
"124",3,2018,2395,2018-03-01,"post",124
"125",4,2018,2627,2018-04-01,"post",125
"126",5,2018,3151,2018-05-01,"post",126
"127",6,2018,2930,2018-06-01,"post",127
"128",7,2018,2863,2018-07-01,"post",128
"129",8,2018,2499,2018-08-01,"post",129
"130",9,2018,3082,2018-09-01,"post",130
"131",10,2018,3083,2018-10-01,"post",131
"132",11,2018,2724,2018-11-01,"post",132
"133",12,2018,2454,2018-12-01,"post",133
"134",1,2019,3012,2019-01-01,"post",134
"135",2,2019,2597,2019-02-01,"post",135
"136",3,2019,2845,2019-03-01,"post",136
"137",4,2019,2798,2019-04-01,"post",137
"138",5,2019,3247,2019-05-01,"post",138
"139",6,2019,3035,2019-06-01,"post",139
"140",7,2019,2936,2019-07-01,"post",140
"141",8,2019,3319,2019-08-01,"post",141
"142",9,2019,3161,2019-09-01,"post",142
